[[[{"header":{"parameterUnit":"kt","parameterCategory":2,"dx":1,"dy":1,"la1":30.253999710083008,"la2":30.299108505249023,"lo1":-89.0895004272461,"lo2":-89.04439544677734,"nx":28,"ny":28,"refTime":"2022-10-29T21:00:00:Z","depth":"0","parameterNumber":2,"parameterNumberName":"U-component_of_CURRENTS"},"data":[-0.3133,-0.3029,-0.3043,-0.2861,-0.2853,-0.2605,-0.2481,-0.2236,-0.2007,-0.1412,-0.1001,-0.0832,-0.0944,-0.1164,-0.1172,-0.1169,-0.1232,-0.1143,-0.1317,-0.1513,-0.1578,-0.164,-0.1604,-0.1028,-0.1028,-0.0937,-0.0936,-0.0936,-0.3296,-0.3302,-0.3292,-0.3291,-0.3238,-0.3342,-0.331,-0.3124,-0.2855,-0.2669,-0.2416,-0.1963,-0.1717,-0.1713,-0.1626,-0.1553,-0.1608,-0.1578,-0.1623,-0.1634,-0.1898,-0.1852,-0.132,-0.132,-0.132,-0.132,-0.132,-0.132,-0.3588,-0.3559,-0.3598,-0.3594,-0.3647,-0.3628,-0.3518,-0.3594,-0.3492,-0.3282,-0.3388,-0.2937,-0.2834,-0.2486,-0.2431,-0.2258,-0.2456,-0.2187,-0.2261,-0.234,-0.2255,-0.2577,-0.2194,-0.2197,-0.22,-0.2203,-0.2205,0,-0.3797,-0.3828,-0.3872,-0.3892,-0.3923,-0.3957,-0.4024,-0.4013,-0.4152,-0.4083,-0.3935,-0.3755,-0.3549,-0.3182,-0.3004,-0.2896,-0.302,-0.298,-0.2961,-0.2639,-0.265,-0.2561,-0.3031,-0.2747,-0.2754,-0.2759,-0.2763,-0.2765,-0.3987,-0.4001,-0.4117,-0.4126,-0.4179,-0.4216,-0.424,-0.438,-0.4403,-0.4419,-0.4381,-0.4267,-0.4064,-0.3786,-0.365,-0.3433,-0.3493,-0.3144,-0.3178,-0.3116,-0.3119,-0.3184,-0.3151,-0.2838,-0.2828,-0.2821,-0.2815,0,-0.4058,-0.4188,-0.4232,-0.4369,-0.44,-0.4394,-0.4484,-0.4486,-0.4561,-0.4523,-0.4519,-0.4529,-0.437,-0.4311,-0.414,-0.4059,-0.3765,-0.3783,-0.3554,-0.3455,-0.3182,-0.3234,-0.3012,-0.2943,-0.3483,-0.3478,-0.3474,0,-0.4211,-0.4245,-0.4398,-0.4427,-0.4451,-0.4574,-0.4576,-0.4626,-0.4668,-0.464,-0.4701,-0.4627,-0.4599,-0.4483,-0.4398,-0.4152,-0.4215,-0.4012,-0.3936,-0.3745,-0.3714,-0.3559,-0.3591,-0.4154,-0.4155,-0.4157,-0.4158,0,-0.4244,-0.4389,-0.445,-0.4492,-0.4626,-0.4648,-0.4695,-0.474,-0.4745,-0.4757,-0.4727,-0.4703,-0.4623,-0.4551,-0.4417,-0.4451,-0.4245,-0.4251,-0.4013,-0.3999,-0.3684,-0.3643,-0.3534,-0.416,-0.416,-0.4161,-0.4162,0,-0.4349,-0.4429,-0.4516,-0.4619,-0.4639,-0.4682,-0.4719,-0.4764,-0.4778,-0.4768,-0.4751,-0.4697,-0.4666,-0.4637,-0.4508,-0.4551,-0.4452,-0.4374,-0.4363,-0.4128,-0.404,-0.3647,-0.3605,-0.3541,-0.42,-0.4201,-0.4202,0,-0.4354,-0.4459,-0.4531,-0.4605,-0.4651,-0.4697,-0.4746,-0.4771,-0.4768,-0.4747,-0.4709,-0.4656,-0.4649,-0.4597,-0.4591,-0.4466,-0.4438,-0.451,-0.4231,-0.4222,-0.4063,-0.41,-0.385,-0.3645,-0.4219,-0.4217,-0.4216,0,-0.4335,-0.4479,-0.4479,-0.4516,-0.4603,-0.4619,-0.4687,-0.4714,-0.4706,-0.47,-0.4674,-0.4652,-0.459,-0.4545,-0.4487,-0.4466,-0.4455,-0.4395,-0.4387,-0.4309,-0.4305,-0.4141,-0.4113,-0.4424,-0.4423,-0.4423,-0.4229,0,-0.4392,-0.444,-0.4469,-0.4534,-0.4567,-0.4599,-0.4626,-0.4636,-0.4608,-0.459,-0.456,-0.4481,-0.4403,-0.4412,-0.4362,-0.437,-0.4304,-0.4264,-0.4176,-0.4264,-0.4165,-0.4156,-0.4212,-0.4209,-0.4206,-0.4203,0,0,-0.4337,-0.439,-0.4409,-0.4461,-0.4481,-0.4468,-0.4507,-0.4511,-0.4473,-0.4456,-0.441,-0.4312,-0.4243,-0.4221,-0.4256,-0.4226,-0.4159,-0.4194,-0.4233,-0.4238,-0.4241,-0.4152,-0.4146,-0.4198,-0.4197,-0.4196,-0.4195,0,-0.4343,-0.4362,-0.4397,-0.4425,-0.4447,-0.4444,-0.4455,-0.4441,-0.4411,-0.4407,-0.4305,-0.4261,-0.4189,-0.4132,-0.4094,-0.4186,-0.4059,-0.4177,-0.4269,-0.421,-0.4219,-0.4225,-0.4141,-0.4138,-0.4188,-0.4188,-0.4188,0,-0.4315,-0.4337,-0.4346,-0.4384,-0.4378,-0.4413,-0.4341,-0.4347,-0.4359,-0.4216,-0.419,-0.4121,-0.4027,-0.4016,-0.3998,-0.3956,-0.396,-0.3975,-0.3989,-0.3971,-0.3903,-0.3914,-0.3924,-0.3791,-0.379,-0.379,0,0,-0.4316,-0.4345,-0.4357,-0.4381,-0.4393,-0.436,-0.4356,-0.4315,-0.4265,-0.4229,-0.4147,-0.4062,-0.4012,-0.3972,-0.3912,-0.3918,-0.3832,-0.3933,-0.3952,-0.3967,-0.3959,-0.3896,-0.3907,-0.3787,-0.3787,-0.3787,0,0,-0.4294,-0.4315,-0.4302,-0.4334,-0.4341,-0.4309,-0.4307,-0.4271,-0.4207,-0.4171,-0.4051,-0.4019,-0.3986,-0.3919,-0.3897,-0.3888,-0.3804,-0.3806,-0.3943,-0.3965,-0.3983,-0.3984,-0.3771,0,0,0,0,0,-0.4297,-0.4329,-0.432,-0.4324,-0.4318,-0.4339,-0.4333,-0.4253,-0.4197,-0.4201,-0.4104,-0.4017,-0.3879,-0.3857,-0.3839,-0.3878,-0.3752,-0.3759,-0.3764,-0.394,-0.3964,-0.3984,0,0,0,0,0,0,-0.4299,-0.4306,-0.4319,-0.4297,-0.4295,-0.4336,-0.4234,-0.4213,-0.4192,-0.4174,-0.4042,-0.4014,-0.3922,-0.3859,-0.3844,-0.3884,-0.3775,-0.3755,-0.376,-0.3765,-0.3948,-0.3968,-0.3985,0,0,0,0,0,-0.43,-0.4305,-0.4317,-0.4294,-0.4292,-0.4213,-0.4229,-0.4211,-0.4178,-0.4065,-0.4035,-0.4116,-0.3928,-0.3905,-0.3849,-0.3893,-0.3785,-0.378,-0.3758,-0.3762,-0.3766,-0.3958,0,0,0,0,0,0,-0.4301,-0.4275,-0.4314,-0.431,-0.4253,-0.4206,-0.4196,-0.4209,-0.4065,-0.4041,-0.4133,-0.412,-0.3932,-0.3913,-0.3897,-0.3903,-0.3792,-0.3787,-0.3784,-0.3761,-0.3765,-0.3767,0,0,0,0,0,0,-0.4272,-0.4273,-0.4311,-0.4263,-0.4253,-0.42,-0.4191,-0.4156,-0.4061,-0.4137,-0.4125,-0.4128,-0.3929,-0.3921,-0.3907,-0.3857,-0.3798,-0.3793,-0.379,-0.3788,-0.3764,-0.3767,0,0,0,0,0,0,-0.4271,-0.4271,-0.4263,-0.4255,-0.4246,-0.4191,-0.4161,-0.4136,-0.4093,-0.4142,-0.408,-0.4074,-0.3937,-0.3922,-0.3915,-0.3872,-0.3861,-0.3798,-0.3795,-0.3792,-0.3791,0,0,0,0,0,0,0,-0.427,-0.4289,-0.4345,-0.4249,-0.424,-0.4277,-0.4275,-0.4273,-0.4091,-0.4086,-0.4081,-0.4076,-0.3826,-0.3821,-0.3815,-0.3884,0,0,-0.3798,-0.3796,0,0,0,0,0,0,0,0,-0.4287,-0.4289,-0.4344,-0.4344,-0.4344,-0.4277,-0.4275,-0.4274,-0.4091,-0.4086,-0.4082,-0.4078,-0.3824,-0.382,-0.3816,0,0,0,0,0,0,0,0,0,0,0,0,0,0,0,-0.4344,-0.4344,0,-0.4276,-0.4275,-0.4274,-0.409,-0.4087,-0.4083,-0.408,-0.3823,-0.382,-0.3816,0,0,0,0,0,0,0,0,0,0,0,0,0,0,0,0,0,0,0,0,0,0,0,0,0,0,0,0,0,0,0,0,0,0,0,0,0,0,0,0,0,0,0,0,0,0,0,0,0,0,0,0,0,0,0,0,0,0,0,0,0,0,0,0,0,0,0,0,0]}],[{"header":{"parameterUnit":"kt","parameterCategory":2,"dx":1,"dy":1,"la1":30.253999710083008,"la2":30.299108505249023,"lo1":-89.0895004272461,"lo2":-89.04439544677734,"nx":28,"ny":28,"refTime":"2022-10-29T21:00:00:Z","depth":"0","parameterNumber":3,"parameterNumberName":"V-component_of_CURRENTS"},"data":[-0.1875,-0.1969,-0.2009,-0.2,-0.1974,-0.1729,-0.1505,-0.1048,-0.0563,0.0402,0.112,0.1637,0.1937,0.2114,0.2297,0.23,0.2356,0.2338,0.2369,0.2102,0.2056,0.2012,0.2014,0.2452,0.2452,0.2673,0.2675,0.2677,-0.1852,-0.1918,-0.1993,-0.2025,-0.2014,-0.1986,-0.1752,-0.1476,-0.0973,-0.0422,0.013,0.0954,0.1356,0.1632,0.1888,0.1997,0.1946,0.2002,0.1931,0.1969,0.1666,0.1666,0.2037,0.2037,0.2037,0.2037,0.2036,0.2036,-0.1803,-0.1872,-0.1926,-0.1981,-0.2002,-0.1924,-0.1786,-0.1591,-0.1302,-0.0719,-0.0498,0.0181,0.0583,0.1144,0.129,0.1515,0.1409,0.1546,0.1538,0.1494,0.1578,0.1229,0.1534,0.1533,0.1532,0.1531,0.153,0,-0.1754,-0.1766,-0.1815,-0.1887,-0.1903,-0.1893,-0.1824,-0.1729,-0.1475,-0.1229,-0.0768,-0.0441,0.0068,0.0538,0.0885,0.1028,0.1016,0.1035,0.111,0.1189,0.1179,0.1287,0.0828,0.1059,0.1055,0.1052,0.105,0.1048,-0.1656,-0.1703,-0.1737,-0.177,-0.1766,-0.1773,-0.1752,-0.1622,-0.1526,-0.1165,-0.1058,-0.0694,-0.0332,0.0154,0.0422,0.0731,0.0749,0.0932,0.0859,0.095,0.099,0.0952,0.101,0.1005,0.1011,0.1015,0.1019,0,-0.1589,-0.1593,-0.1649,-0.1634,-0.1628,-0.1652,-0.1562,-0.1525,-0.1384,-0.1209,-0.1153,-0.0849,-0.0513,-0.0289,0.002,0.0141,0.0488,0.0499,0.0555,0.062,0.089,0.0886,0.113,0.1226,0.0769,0.0774,0.0778,0,-0.1469,-0.1508,-0.1497,-0.1527,-0.1564,-0.148,-0.1467,-0.1389,-0.1252,-0.1129,-0.0993,-0.0823,-0.0618,-0.0394,-0.0236,0.0084,0.0035,0.0256,0.0317,0.0357,0.0373,0.0514,0.0518,0.0144,0.0142,0.0141,0.0139,0,-0.1352,-0.1369,-0.1431,-0.1424,-0.1372,-0.1364,-0.1323,-0.1201,-0.1141,-0.0999,-0.0916,-0.0766,-0.0636,-0.0495,-0.0238,-0.0277,0.0032,0.0002,0.0238,0.0249,0.0382,0.0404,0.0579,0.0137,0.0137,0.0136,0.0135,0,-0.1228,-0.1252,-0.1317,-0.1287,-0.128,-0.1269,-0.1191,-0.1147,-0.1005,-0.0928,-0.0824,-0.0705,-0.0577,-0.053,-0.0305,-0.036,-0.0236,-0.0123,-0.0113,0.0051,0.0103,0.0328,0.0421,0.0513,0.003,0.0028,0.0027,0,-0.1135,-0.1193,-0.1138,-0.1169,-0.1188,-0.1082,-0.1051,-0.0974,-0.0883,-0.0802,-0.0683,-0.0602,-0.0543,-0.0492,-0.0425,-0.0273,-0.0209,-0.0294,-0.0063,-0.0056,0.0051,0.0105,0.0182,0.0381,0.0004,0.0007,0.0008,0,-0.1051,-0.1029,-0.1034,-0.1042,-0.0971,-0.0949,-0.0914,-0.0853,-0.0823,-0.0727,-0.0679,-0.0574,-0.0505,-0.0456,-0.0376,-0.0312,-0.0238,-0.0258,-0.0252,-0.0186,-0.0075,0.0059,0.0088,-0.0218,-0.0217,-0.0216,-0.0009,0,-0.0952,-0.0961,-0.0967,-0.0945,-0.0909,-0.0905,-0.0819,-0.0778,-0.072,-0.0659,-0.058,-0.0477,-0.0398,-0.0365,-0.0314,-0.0265,-0.0221,-0.0206,-0.0182,-0.019,-0.0095,-0.0081,-0.0215,-0.0214,-0.0213,-0.0212,0,0,-0.0882,-0.0897,-0.0829,-0.0834,-0.0816,-0.0722,-0.0736,-0.0681,-0.0597,-0.0568,-0.0536,-0.0399,-0.0335,-0.0275,-0.027,-0.0234,-0.0177,-0.0234,-0.0189,-0.0187,-0.0184,-0.0095,-0.0084,-0.0209,-0.0209,-0.0208,-0.0208,0,-0.0843,-0.0809,-0.0832,-0.0795,-0.0744,-0.0695,-0.0692,-0.0618,-0.0583,-0.0533,-0.0469,-0.0407,-0.0319,-0.0263,-0.0225,-0.022,-0.0152,-0.0202,-0.0244,-0.018,-0.018,-0.0179,-0.0092,-0.0083,-0.0205,-0.0205,-0.0205,0,-0.0785,-0.0755,-0.0756,-0.0707,-0.0669,-0.0654,-0.0595,-0.0567,-0.0551,-0.0462,-0.0426,-0.036,-0.0281,-0.0235,-0.021,-0.0197,-0.0123,-0.0157,-0.0161,-0.0163,-0.0095,-0.0095,-0.0095,-0.0096,-0.0096,-0.0096,0,0,-0.0758,-0.0758,-0.0692,-0.0694,-0.0674,-0.0609,-0.0585,-0.0551,-0.0493,-0.0471,-0.0409,-0.0345,-0.0289,-0.0257,-0.02,-0.0158,-0.0102,-0.0148,-0.0153,-0.0158,-0.0162,-0.0096,-0.0096,-0.0096,-0.0096,-0.0096,0,0,-0.074,-0.0687,-0.0668,-0.0666,-0.0618,-0.0544,-0.0539,-0.0503,-0.0452,-0.0451,-0.0374,-0.0355,-0.0307,-0.0259,-0.0272,-0.0198,-0.0171,-0.0167,-0.0243,-0.0248,-0.0253,-0.0275,-0.0227,0,0,0,0,0,-0.068,-0.0695,-0.0678,-0.0669,-0.0605,-0.0555,-0.0543,-0.0495,-0.0481,-0.0475,-0.0415,-0.0383,-0.0249,-0.0259,-0.0241,-0.0244,-0.0101,-0.01,-0.0099,-0.0186,-0.0193,-0.0198,0,0,0,0,0,0,-0.0676,-0.0667,-0.0676,-0.0608,-0.0592,-0.0555,-0.0521,-0.0507,-0.0481,-0.0476,-0.0395,-0.038,-0.0329,-0.0264,-0.0249,-0.0253,-0.0232,-0.0101,-0.01,-0.0099,-0.0188,-0.0194,-0.0198,0,0,0,0,0,-0.0673,-0.0666,-0.0584,-0.0606,-0.0593,-0.0527,-0.0521,-0.051,-0.0489,-0.0406,-0.0392,-0.0455,-0.033,-0.0313,-0.0255,-0.0262,-0.0242,-0.0236,-0.01,-0.01,-0.0099,-0.0191,0,0,0,0,0,0,-0.067,-0.0648,-0.0579,-0.0572,-0.0608,-0.0528,-0.0517,-0.0512,-0.042,-0.0406,-0.0463,-0.046,-0.0331,-0.0318,-0.0305,-0.0268,-0.025,-0.0244,-0.0241,-0.01,-0.0099,-0.0099,0,0,0,0,0,0,-0.0651,-0.0643,-0.0575,-0.058,-0.0573,-0.0529,-0.0519,-0.0465,-0.0419,-0.0481,-0.0476,-0.0463,-0.0343,-0.0321,-0.0311,-0.0228,-0.0256,-0.0251,-0.0247,-0.0245,-0.0099,-0.0099,0,0,0,0,0,0,-0.0646,-0.0639,-0.0582,-0.0576,-0.057,-0.0484,-0.0478,-0.0412,-0.0435,-0.0486,-0.0435,-0.0434,-0.0347,-0.0336,-0.0315,-0.0236,-0.023,-0.0256,-0.0252,-0.025,-0.0248,0,0,0,0,0,0,0,-0.0642,-0.0712,-0.0623,-0.0573,-0.0567,-0.0504,-0.0502,-0.05,-0.0435,-0.0435,-0.0435,-0.0435,-0.0285,-0.028,-0.0274,-0.0243,0,0,-0.0256,-0.0254,0,0,0,0,0,0,0,0,-0.0713,-0.0712,-0.0622,-0.0621,-0.0619,-0.0503,-0.0502,-0.05,-0.0435,-0.0435,-0.0435,-0.0435,-0.0284,-0.0279,-0.0275,0,0,0,0,0,0,0,0,0,0,0,0,0,0,0,-0.0622,-0.0621,0,-0.0503,-0.0502,-0.0501,-0.0435,-0.0435,-0.0435,-0.0435,-0.0283,-0.0279,-0.0275,0,0,0,0,0,0,0,0,0,0,0,0,0,0,0,0,0,0,0,0,0,0,0,0,0,0,0,0,0,0,0,0,0,0,0,0,0,0,0,0,0,0,0,0,0,0,0,0,0,0,0,0,0,0,0,0,0,0,0,0,0,0,0,0,0,0,0,0,0]}]],[[{"header":{"parameterUnit":"kt","parameterCategory":2,"dx":1,"dy":1,"la1":30.253999710083008,"la2":30.299108505249023,"lo1":-89.0895004272461,"lo2":-89.04439544677734,"nx":28,"ny":28,"refTime":"2022-10-29T21:00:00:Z","depth":"2","parameterNumber":2,"parameterNumberName":"U-component_of_CURRENTS"},"data":[-0.3019,-0.2924,-0.2929,-0.2715,-0.2697,-0.2492,-0.2411,-0.226,-0.2165,-0.1908,-0.1737,-0.1801,-0.1874,-0.1466,-0.1434,-0.1246,-0.1513,-0.119,-0.196,-0.2045,-0.2104,-0.23,-0.2251,0,0,0,0,0,-0.3155,-0.3156,-0.3154,-0.3136,-0.3067,-0.3194,-0.3185,-0.304,-0.2863,-0.2827,-0.2686,-0.2302,-0.2056,-0.204,-0.1784,-0.1773,-0.1809,-0.1705,-0.1726,-0.1794,-0.1856,-0.1778,-0.1182,-0.1179,-0.1177,-0.1175,0,0,-0.3395,-0.3376,-0.3409,-0.3418,-0.3471,-0.3462,-0.3382,-0.346,-0.3427,-0.3304,-0.3427,-0.315,-0.311,-0.2641,-0.2501,-0.2416,-0.2652,-0.252,-0.2547,-0.2582,-0.2535,-0.2488,-0.2144,-0.2148,-0.2151,-0.2155,-0.2157,0,-0.3559,-0.3593,-0.3632,-0.3664,-0.3705,-0.3753,-0.382,-0.3829,-0.3963,-0.3959,-0.3877,-0.3786,-0.362,-0.3276,-0.3105,-0.2986,-0.313,-0.2944,-0.3519,-0.2933,-0.2892,-0.2862,-0.2902,-0.2634,-0.2641,-0.2646,-0.265,-0.2653,-0.3709,-0.3724,-0.3837,-0.3852,-0.3903,-0.3967,-0.4003,-0.4157,-0.4178,-0.424,-0.4204,-0.4153,-0.4017,-0.3804,-0.366,-0.3478,-0.3629,-0.3112,-0.3116,-0.3632,-0.3598,-0.3614,-0.3627,-0.2729,-0.2719,-0.2711,-0.2705,0,-0.3767,-0.3866,-0.3914,-0.4042,-0.4078,-0.4097,-0.4211,-0.4234,-0.4332,-0.4319,-0.433,-0.4369,-0.4248,-0.4197,-0.4066,-0.3978,-0.3834,-0.3745,-0.3449,-0.3365,-0.3655,-0.3662,-0.3507,-0.35,-0.3495,-0.349,-0.3487,0,-0.3884,-0.3917,-0.4046,-0.4074,-0.4119,-0.4227,-0.4264,-0.4324,-0.4393,-0.4385,-0.4458,-0.4416,-0.4402,-0.4314,-0.4238,-0.4033,-0.4099,-0.3911,-0.3859,-0.3615,-0.3581,-0.4012,-0.4009,-0.405,-0.4052,-0.4053,-0.4054,0,-0.3915,-0.4031,-0.408,-0.4116,-0.4239,-0.4269,-0.4323,-0.4386,-0.4414,-0.4457,-0.4459,-0.445,-0.441,-0.4352,-0.4243,-0.427,-0.4115,-0.4128,-0.392,-0.3908,-0.357,-0.3529,-0.4055,-0.4055,-0.4055,-0.4056,-0.4056,0,-0.3994,-0.4056,-0.4125,-0.4222,-0.4243,-0.4287,-0.4345,-0.4393,-0.4431,-0.4443,-0.4446,-0.4424,-0.4409,-0.4385,-0.4292,-0.4325,-0.425,-0.4195,-0.4187,-0.3983,-0.3924,-0.3525,-0.3471,-0.4075,-0.4076,-0.4077,-0.4077,0,-0.4002,-0.4081,-0.4134,-0.42,-0.424,-0.4286,-0.4336,-0.4372,-0.4388,-0.4399,-0.4381,-0.4373,-0.4356,-0.4343,-0.4335,-0.4257,-0.4234,-0.4283,-0.4092,-0.4085,-0.3941,-0.3971,-0.3666,-0.3505,-0.4089,-0.4088,-0.4087,0,-0.3989,-0.4096,-0.4097,-0.4131,-0.4202,-0.4225,-0.4282,-0.4317,-0.4333,-0.4343,-0.4347,-0.4344,-0.4314,-0.4288,-0.4257,-0.4245,-0.4245,-0.4198,-0.4192,-0.4131,-0.4152,-0.4003,-0.3981,-0.4236,-0.4236,-0.4235,-0.4096,0,-0.4031,-0.4067,-0.409,-0.4143,-0.4175,-0.4205,-0.4238,-0.4258,-0.4254,-0.4254,-0.4255,-0.4213,-0.4178,-0.419,-0.4158,-0.4174,-0.4127,-0.4104,-0.4034,-0.4107,-0.4034,-0.4028,-0.4061,-0.4058,-0.4056,-0.4054,0,0,-0.3992,-0.4028,-0.4046,-0.4088,-0.4109,-0.4114,-0.4149,-0.4162,-0.4156,-0.4153,-0.4127,-0.4091,-0.4048,-0.4047,-0.4077,-0.4062,-0.4017,-0.4035,-0.4081,-0.4085,-0.4088,-0.4023,-0.402,-0.405,-0.4049,-0.4048,-0.4047,0,-0.3992,-0.4009,-0.4035,-0.4062,-0.409,-0.4096,-0.4108,-0.4116,-0.4104,-0.4119,-0.4056,-0.404,-0.4007,-0.3972,-0.3951,-0.4031,-0.3938,-0.4032,-0.4097,-0.4063,-0.407,-0.4076,-0.4015,-0.4013,-0.4041,-0.4042,-0.4042,0,-0.3973,-0.3991,-0.3998,-0.4033,-0.4039,-0.4073,-0.403,-0.4047,-0.4063,-0.3971,-0.397,-0.3933,-0.3874,-0.388,-0.3874,-0.384,-0.3859,-0.3868,-0.388,-0.3856,-0.3816,-0.3825,-0.3833,-0.3722,-0.3721,-0.3721,0,0,-0.3973,-0.3993,-0.4012,-0.4032,-0.4046,-0.4038,-0.4043,-0.4023,-0.4,-0.3981,-0.3933,-0.3884,-0.3859,-0.3837,-0.3801,-0.3818,-0.3752,-0.3834,-0.3849,-0.3862,-0.3846,-0.3809,-0.3819,-0.3719,-0.3718,-0.3718,0,0,-0.3959,-0.398,-0.3975,-0.4001,-0.4015,-0.4007,-0.4013,-0.3997,-0.3964,-0.3944,-0.3866,-0.3845,-0.3836,-0.379,-0.3768,-0.3783,-0.3715,-0.3718,-0.3822,-0.3839,-0.3854,-0.3842,-0.3674,0,0,0,0,0,-0.3965,-0.3988,-0.3985,-0.399,-0.4001,-0.4025,-0.4024,-0.3981,-0.3949,-0.3954,-0.39,-0.3835,-0.376,-0.3739,-0.3728,-0.3764,-0.3688,-0.3694,-0.3699,-0.3834,-0.3853,-0.387,0,0,0,0,0,0,-0.3967,-0.3974,-0.3984,-0.3982,-0.3985,-0.4023,-0.3958,-0.3947,-0.3946,-0.3934,-0.3852,-0.3833,-0.377,-0.3739,-0.3731,-0.3767,-0.3677,-0.369,-0.3695,-0.3699,-0.384,-0.3856,-0.387,0,0,0,0,0,-0.3969,-0.3974,-0.4,-0.3981,-0.3983,-0.3944,-0.3955,-0.3945,-0.3933,-0.386,-0.3841,-0.3899,-0.3774,-0.376,-0.3734,-0.3773,-0.3683,-0.368,-0.3693,-0.3697,-0.37,-0.3848,0,0,0,0,0,0,-0.397,-0.3957,-0.3999,-0.3999,-0.395,-0.3938,-0.3934,-0.3943,-0.3855,-0.3841,-0.3902,-0.3893,-0.3778,-0.3766,-0.3755,-0.378,-0.3687,-0.3684,-0.3682,-0.3696,-0.3699,-0.3701,0,0,0,0,0,0,-0.3955,-0.3957,-0.3999,-0.3963,-0.3958,-0.3934,-0.393,-0.3911,-0.3852,-0.3899,-0.3892,-0.3898,-0.377,-0.377,-0.3762,-0.3735,-0.3691,-0.3688,-0.3686,-0.3684,-0.3698,-0.3701,0,0,0,0,0,0,-0.3955,-0.3957,-0.3962,-0.3959,-0.3953,-0.3938,-0.3912,-0.3907,-0.388,-0.3901,-0.3871,-0.3867,-0.3775,-0.3766,-0.3767,-0.3745,-0.3738,-0.3691,-0.3689,-0.3687,-0.3686,0,0,0,0,0,0,0,-0.3955,-0.3952,-0.401,-0.3955,-0.395,-0.3994,-0.3993,-0.3993,-0.3879,-0.3875,-0.3872,-0.3868,-0.3707,-0.3704,-0.3701,-0.3753,0,0,-0.3691,-0.3689,0,0,0,0,0,0,0,0,-0.395,-0.3951,-0.401,-0.401,-0.401,-0.3994,-0.3993,-0.3993,-0.3878,-0.3876,-0.3873,-0.387,-0.3706,-0.3704,-0.3701,0,0,0,0,0,0,0,0,0,0,0,0,0,0,0,-0.401,-0.401,0,-0.3994,-0.3993,-0.3993,-0.3878,-0.3876,-0.3873,-0.3871,-0.3706,-0.3703,-0.3701,0,0,0,0,0,0,0,0,0,0,0,0,0,0,0,0,0,0,0,0,0,0,0,0,0,0,0,0,0,0,0,0,0,0,0,0,0,0,0,0,0,0,0,0,0,0,0,0,0,0,0,0,0,0,0,0,0,0,0,0,0,0,0,0,0,0,0,0,0]}],[{"header":{"parameterUnit":"kt","parameterCategory":2,"dx":1,"dy":1,"la1":30.253999710083008,"la2":30.299108505249023,"lo1":-89.0895004272461,"lo2":-89.04439544677734,"nx":28,"ny":28,"refTime":"2022-10-29T21:00:00:Z","depth":"2","parameterNumber":3,"parameterNumberName":"V-component_of_CURRENTS"},"data":[-0.1719,-0.1821,-0.1863,-0.1949,-0.1989,-0.1961,-0.1896,-0.1687,-0.1417,-0.1029,-0.0696,-0.0405,0.0003,0.0207,0.0398,0.0572,0.0541,0.0567,0.0614,0.0434,0.0425,0.0546,0.0454,0,0,0,0,0,-0.1679,-0.1746,-0.1833,-0.1908,-0.1946,-0.1936,-0.1859,-0.1749,-0.1548,-0.1222,-0.0926,-0.0482,-0.0112,0.0237,0.0581,0.075,0.0691,0.0745,0.062,0.0613,0.0606,0.0553,0.0677,0.0678,0.0678,0.0678,0,0,-0.1609,-0.1678,-0.1734,-0.1805,-0.1848,-0.1846,-0.182,-0.171,-0.1572,-0.1262,-0.1054,-0.0649,-0.0332,0.0262,0.0482,0.0687,0.0684,0.0683,0.0675,0.0667,0.0623,0.0591,0.0761,0.0762,0.0763,0.0763,0.0764,0,-0.1545,-0.1558,-0.1601,-0.1688,-0.1717,-0.1729,-0.1691,-0.1652,-0.1456,-0.131,-0.1028,-0.0807,-0.0335,0.0021,0.0401,0.0541,0.0536,0.0619,0.0607,0.0415,0.0376,0.0395,0.038,0.0514,0.0513,0.0513,0.0513,0.0512,-0.1449,-0.1487,-0.1517,-0.1557,-0.1551,-0.1565,-0.1559,-0.1438,-0.1373,-0.1112,-0.1049,-0.0752,-0.05,-0.0057,0.0218,0.0512,0.0488,0.0593,0.0529,0.0469,0.0493,0.0476,0.0459,0.0505,0.0506,0.0507,0.0507,0,-0.1388,-0.138,-0.1425,-0.14,-0.1397,-0.1424,-0.1355,-0.1327,-0.1198,-0.1086,-0.1043,-0.0767,-0.0496,-0.0255,0.0025,0.0149,0.036,0.0444,0.0346,0.0376,0.0449,0.0436,0.0618,0.0622,0.0625,0.0627,0.0629,0,-0.1277,-0.1305,-0.1285,-0.1307,-0.1339,-0.1253,-0.1242,-0.1166,-0.1045,-0.0966,-0.0805,-0.0691,-0.0463,-0.0272,-0.0125,0.0127,0.0117,0.0262,0.0306,0.0229,0.0228,0.0179,0.0171,0.0235,0.0234,0.0233,0.0232,0,-0.1181,-0.118,-0.1223,-0.1213,-0.1156,-0.1142,-0.1104,-0.0985,-0.0936,-0.0797,-0.0738,-0.0574,-0.0479,-0.0334,-0.0128,-0.0156,0.0106,0.0092,0.0246,0.0251,0.0248,0.0249,0.023,0.023,0.023,0.0229,0.0229,0,-0.1068,-0.1083,-0.1127,-0.1088,-0.108,-0.1066,-0.0988,-0.0944,-0.0804,-0.0738,-0.0631,-0.0535,-0.0409,-0.0381,-0.0171,-0.0226,-0.0122,-0.0033,-0.0024,0.0055,0.0081,0.0147,0.0207,0.0081,0.0079,0.0077,0.0076,0,-0.099,-0.1032,-0.0979,-0.0997,-0.1009,-0.0914,-0.0877,-0.0802,-0.0722,-0.0647,-0.0533,-0.0467,-0.0415,-0.0381,-0.0303,-0.0189,-0.0119,-0.0197,-0.0007,-0.0001,0.004,0.0097,0.0031,0.0177,0.0054,0.0056,0.0058,0,-0.0925,-0.0896,-0.0902,-0.0903,-0.0841,-0.0825,-0.0781,-0.0716,-0.0685,-0.0602,-0.0549,-0.0454,-0.04,-0.0357,-0.0293,-0.0227,-0.0151,-0.0198,-0.0193,-0.014,0.0003,0.0059,0.008,-0.0129,-0.0127,-0.0126,0.004,0,-0.0834,-0.084,-0.0846,-0.0826,-0.0796,-0.0792,-0.0718,-0.0681,-0.0635,-0.0579,-0.0503,-0.0421,-0.0348,-0.032,-0.0286,-0.0221,-0.0199,-0.0185,-0.0167,-0.0156,-0.0084,-0.0071,-0.0219,-0.0218,-0.0218,-0.0217,0,0,-0.0777,-0.079,-0.0741,-0.0743,-0.0727,-0.0657,-0.0664,-0.0618,-0.0551,-0.0519,-0.0506,-0.0385,-0.0335,-0.0263,-0.0258,-0.0232,-0.0188,-0.0234,-0.0168,-0.0163,-0.0157,-0.0089,-0.0077,-0.0216,-0.0215,-0.0215,-0.0215,0,-0.0743,-0.0723,-0.0742,-0.0713,-0.0675,-0.0636,-0.0634,-0.0577,-0.0547,-0.0506,-0.0455,-0.0399,-0.0333,-0.0277,-0.0243,-0.0227,-0.0178,-0.0218,-0.0233,-0.0164,-0.016,-0.0156,-0.0088,-0.0078,-0.0213,-0.0213,-0.0213,0,-0.0694,-0.0672,-0.0677,-0.0642,-0.0614,-0.06,-0.0558,-0.054,-0.0522,-0.0459,-0.0425,-0.0376,-0.0312,-0.0269,-0.0247,-0.0238,-0.0161,-0.0198,-0.02,-0.0202,-0.0129,-0.0124,-0.0121,-0.017,-0.017,-0.017,0,0,-0.0669,-0.0674,-0.0623,-0.0631,-0.0616,-0.0567,-0.0551,-0.0526,-0.0482,-0.0466,-0.0417,-0.0367,-0.032,-0.0292,-0.0249,-0.0209,-0.0164,-0.0196,-0.0198,-0.02,-0.0202,-0.0131,-0.0126,-0.0171,-0.0171,-0.0171,0,0,-0.0654,-0.0616,-0.0602,-0.0608,-0.0571,-0.0516,-0.0515,-0.0488,-0.0449,-0.0451,-0.0391,-0.0377,-0.0337,-0.0301,-0.0314,-0.0245,-0.0232,-0.0228,-0.0274,-0.0276,-0.0278,-0.0293,-0.0283,0,0,0,0,0,-0.0604,-0.0621,-0.0609,-0.0603,-0.0561,-0.0524,-0.0515,-0.0481,-0.0472,-0.0469,-0.0422,-0.04,-0.0293,-0.0304,-0.0291,-0.0284,-0.0178,-0.0177,-0.0176,-0.0225,-0.0228,-0.023,0,0,0,0,0,0,-0.0601,-0.0596,-0.0607,-0.0557,-0.0546,-0.0523,-0.0499,-0.0489,-0.0472,-0.0469,-0.0409,-0.0398,-0.0359,-0.0308,-0.0296,-0.0291,-0.0287,-0.0178,-0.0176,-0.0175,-0.0226,-0.0228,-0.023,0,0,0,0,0,-0.0599,-0.0595,-0.0543,-0.0556,-0.0546,-0.05,-0.0499,-0.0491,-0.0478,-0.0416,-0.0405,-0.0455,-0.036,-0.0347,-0.0301,-0.0297,-0.0294,-0.029,-0.0177,-0.0176,-0.0175,-0.0227,0,0,0,0,0,0,-0.0598,-0.0582,-0.054,-0.0535,-0.0557,-0.05,-0.0493,-0.0492,-0.0425,-0.0415,-0.0458,-0.0456,-0.0361,-0.0351,-0.0341,-0.0302,-0.03,-0.0296,-0.0294,-0.0176,-0.0175,-0.0175,0,0,0,0,0,0,-0.0584,-0.0578,-0.0537,-0.0541,-0.0536,-0.0501,-0.0495,-0.0453,-0.0425,-0.0471,-0.0468,-0.0458,-0.0369,-0.0353,-0.0346,-0.0282,-0.0305,-0.0301,-0.0298,-0.0297,-0.0176,-0.0175,0,0,0,0,0,0,-0.058,-0.0575,-0.0542,-0.0539,-0.0534,-0.0472,-0.0462,-0.0418,-0.0439,-0.0474,-0.0438,-0.0438,-0.0372,-0.0364,-0.0349,-0.0289,-0.0284,-0.0305,-0.0302,-0.03,-0.0299,0,0,0,0,0,0,0,-0.0577,-0.0625,-0.0571,-0.0536,-0.0532,-0.0486,-0.0484,-0.0483,-0.0439,-0.0439,-0.0438,-0.0438,-0.0327,-0.0323,-0.0319,-0.0294,0,0,-0.0305,-0.0303,0,0,0,0,0,0,0,0,-0.0625,-0.0625,-0.0571,-0.057,-0.0569,-0.0486,-0.0485,-0.0483,-0.0439,-0.0439,-0.0438,-0.0438,-0.0326,-0.0323,-0.0319,0,0,0,0,0,0,0,0,0,0,0,0,0,0,0,-0.0571,-0.057,0,-0.0486,-0.0485,-0.0484,-0.0439,-0.0439,-0.0438,-0.0438,-0.0325,-0.0322,-0.0319,0,0,0,0,0,0,0,0,0,0,0,0,0,0,0,0,0,0,0,0,0,0,0,0,0,0,0,0,0,0,0,0,0,0,0,0,0,0,0,0,0,0,0,0,0,0,0,0,0,0,0,0,0,0,0,0,0,0,0,0,0,0,0,0,0,0,0,0,0]}]],[[{"header":{"parameterUnit":"kt","parameterCategory":2,"dx":1,"dy":1,"la1":30.253999710083008,"la2":30.299108505249023,"lo1":-89.0895004272461,"lo2":-89.04439544677734,"nx":28,"ny":28,"refTime":"2022-10-29T21:00:00:Z","depth":"4","parameterNumber":2,"parameterNumberName":"U-component_of_CURRENTS"},"data":[-0.1981,-0.2019,-0.203,-0.1915,-0.1886,-0.1956,-0.2048,-0.2172,-0.2087,-0.2258,-0.2184,-0.2335,-0.2232,-0.2376,-0.2136,-0.2146,-0.2188,-0.2296,-0.2289,-0.2479,-0.2506,-0.2531,-0.2512,0,0,0,0,0,-0.2086,-0.2069,-0.2122,-0.2163,-0.227,-0.2323,-0.2494,-0.2604,-0.2759,-0.256,-0.2656,-0.2517,-0.237,-0.24,-0.2216,-0.2473,-0.2463,-0.2256,-0.241,-0.2496,-0.2526,-0.2498,0,0,0,0,0,0,-0.223,-0.2246,-0.2352,-0.2424,-0.2545,-0.2546,-0.2657,-0.2656,-0.2716,-0.2849,-0.2774,-0.2766,-0.2849,-0.2682,-0.2578,-0.2465,-0.2436,-0.2368,-0.2403,-0.2433,-0.2385,-0.2324,-0.199,0,0,0,0,0,-0.2349,-0.2445,-0.2522,-0.2637,-0.2741,-0.2827,-0.2941,-0.2945,-0.3095,-0.3277,-0.3123,-0.3047,-0.2929,-0.2837,-0.2735,-0.2629,-0.2865,-0.2733,-0.2749,-0.2787,-0.2769,-0.2755,-0.2777,-0.2641,-0.2644,-0.2647,-0.2648,0,-0.2482,-0.2528,-0.2733,-0.2789,-0.2884,-0.3018,-0.3092,-0.3283,-0.3313,-0.3423,-0.3385,-0.3391,-0.3377,-0.3043,-0.3078,-0.2917,-0.288,-0.2812,-0.2852,-0.2819,-0.2794,-0.2809,-0.2823,-0.2673,-0.2671,-0.2669,-0.2667,0,-0.2543,-0.267,-0.2767,-0.2955,-0.3019,-0.3088,-0.3272,-0.3324,-0.3468,-0.3491,-0.3524,-0.3593,-0.3496,-0.3473,-0.3377,-0.3253,-0.3109,-0.301,-0.3289,-0.3267,-0.2864,-0.2868,-0.2712,-0.2704,-0.2696,-0.269,-0.2685,0,-0.2658,-0.2729,-0.2908,-0.2952,-0.3053,-0.3175,-0.3279,-0.3363,-0.3478,-0.3496,-0.3603,-0.3585,-0.3615,-0.3558,-0.3492,-0.3285,-0.3399,-0.3138,-0.3094,-0.3375,-0.3377,-0.3322,-0.3318,-0.336,-0.3361,-0.3362,-0.3362,0,-0.2701,-0.2841,-0.2922,-0.2967,-0.3118,-0.3189,-0.3272,-0.3378,-0.3436,-0.3531,-0.3572,-0.3592,-0.3604,-0.356,-0.3488,-0.3511,-0.3403,-0.3418,-0.3158,-0.3142,-0.3324,-0.3319,-0.3363,-0.3363,-0.3363,-0.3364,-0.3364,0,-0.2776,-0.2845,-0.2943,-0.3067,-0.3099,-0.3172,-0.3284,-0.3353,-0.3437,-0.3484,-0.3526,-0.3542,-0.3558,-0.3543,-0.3495,-0.3522,-0.3472,-0.3435,-0.3431,-0.3171,-0.3124,-0.3286,-0.3357,-0.3357,-0.3358,-0.3358,-0.3358,0,-0.2784,-0.2873,-0.2929,-0.3026,-0.3076,-0.315,-0.3223,-0.3292,-0.3351,-0.3412,-0.3424,-0.3476,-0.3466,-0.3498,-0.3494,-0.346,-0.3446,-0.3473,-0.3359,-0.3355,-0.3141,-0.3149,-0.3458,-0.3365,-0.3364,-0.3364,-0.3363,0,-0.2763,-0.288,-0.2894,-0.2943,-0.3035,-0.3069,-0.3156,-0.322,-0.3274,-0.3335,-0.3385,-0.3427,-0.3434,-0.3435,-0.3434,-0.3433,-0.3449,-0.3414,-0.3411,-0.3365,-0.3408,-0.3185,-0.3159,-0.3457,-0.3457,-0.3457,-0.3368,0,-0.2789,-0.2847,-0.2877,-0.2944,-0.299,-0.3042,-0.3095,-0.3154,-0.3206,-0.3232,-0.3297,-0.3304,-0.333,-0.3353,-0.3344,-0.3381,-0.3355,-0.334,-0.3286,-0.335,-0.3302,-0.3299,-0.3304,-0.3302,-0.33,-0.3298,0,0,-0.2754,-0.2794,-0.2825,-0.287,-0.2909,-0.2951,-0.3,-0.3039,-0.3101,-0.3127,-0.3141,-0.3201,-0.3205,-0.3237,-0.3273,-0.3278,-0.3256,-0.3275,-0.3328,-0.3331,-0.3335,-0.3292,-0.3291,-0.3295,-0.3295,-0.3294,-0.3294,0,-0.2731,-0.2772,-0.2807,-0.2843,-0.2903,-0.2922,-0.295,-0.3,-0.3033,-0.31,-0.3091,-0.3125,-0.3173,-0.3166,-0.3168,-0.3253,-0.3203,-0.3277,-0.3329,-0.3314,-0.332,-0.3325,-0.3285,-0.3286,-0.3289,-0.329,-0.329,0,-0.2702,-0.2726,-0.2748,-0.2795,-0.283,-0.2873,-0.2867,-0.2924,-0.2966,-0.2942,-0.3022,-0.3029,-0.3022,-0.3074,-0.3099,-0.3075,-0.3142,-0.3144,-0.3153,-0.3131,-0.3111,-0.3119,-0.3126,-0.3027,-0.3027,-0.3026,0,0,-0.2688,-0.2721,-0.2751,-0.2791,-0.2815,-0.2849,-0.2877,-0.2897,-0.2925,-0.2946,-0.2965,-0.2984,-0.3,-0.3021,-0.3028,-0.3081,-0.3034,-0.3115,-0.3127,-0.3138,-0.3122,-0.3105,-0.3113,-0.3024,-0.3024,-0.3024,0,0,-0.2672,-0.2706,-0.2724,-0.2765,-0.28,-0.2818,-0.2859,-0.2877,-0.2918,-0.2935,-0.2922,-0.2925,-0.2982,-0.2969,-0.2941,-0.3023,-0.2968,-0.2974,-0.3043,-0.3057,-0.3069,-0.3047,-0.2894,0,0,0,0,0,-0.2669,-0.2699,-0.2715,-0.2726,-0.2778,-0.2812,-0.282,-0.2848,-0.2866,-0.2894,-0.2915,-0.2892,-0.2949,-0.2924,-0.2927,-0.2978,-0.2995,-0.3,-0.3005,-0.3104,-0.312,-0.3133,0,0,0,0,0,0,-0.2673,-0.2684,-0.2715,-0.2732,-0.2745,-0.281,-0.2799,-0.2807,-0.2863,-0.2867,-0.289,-0.2891,-0.2871,-0.2921,-0.2924,-0.2973,-0.2893,-0.2997,-0.3001,-0.3005,-0.3109,-0.3122,-0.3133,0,0,0,0,0,-0.2677,-0.2685,-0.2762,-0.2732,-0.2743,-0.2785,-0.2799,-0.2805,-0.2857,-0.2847,-0.2851,-0.2882,-0.287,-0.2874,-0.2923,-0.2973,-0.2891,-0.2892,-0.2999,-0.3003,-0.3006,-0.3115,0,0,0,0,0,0,-0.2679,-0.2687,-0.2764,-0.2769,-0.2731,-0.2784,-0.2792,-0.2804,-0.2834,-0.284,-0.2833,-0.2834,-0.287,-0.2873,-0.2876,-0.2975,-0.2889,-0.289,-0.2891,-0.3002,-0.3005,-0.3007,0,0,0,0,0,0,-0.2683,-0.2691,-0.2767,-0.2764,-0.2769,-0.2782,-0.2789,-0.2801,-0.2833,-0.2817,-0.282,-0.2833,-0.2862,-0.2872,-0.2875,-0.2893,-0.2887,-0.2889,-0.2889,-0.289,-0.3004,-0.3006,0,0,0,0,0,0,-0.2687,-0.2694,-0.2763,-0.2766,-0.277,-0.2824,-0.2792,-0.284,-0.2846,-0.2814,-0.2846,-0.2846,-0.286,-0.2863,-0.2874,-0.2891,-0.2893,-0.2888,-0.2888,-0.2889,-0.2889,0,0,0,0,0,0,0,-0.269,-0.2638,-0.274,-0.2768,-0.2771,-0.2815,-0.2816,-0.2817,-0.2846,-0.2846,-0.2846,-0.2846,-0.2881,-0.2882,-0.2883,-0.2889,0,0,-0.2887,-0.2888,0,0,0,0,0,0,0,0,-0.2636,-0.2638,-0.274,-0.2741,-0.2742,-0.2815,-0.2816,-0.2816,-0.2846,-0.2846,-0.2846,-0.2846,-0.2881,-0.2882,-0.2883,0,0,0,0,0,0,0,0,0,0,0,0,0,0,0,-0.274,-0.2741,0,-0.2815,-0.2816,-0.2816,-0.2846,-0.2846,-0.2846,-0.2846,-0.2881,-0.2882,-0.2883,0,0,0,0,0,0,0,0,0,0,0,0,0,0,0,0,0,0,0,0,0,0,0,0,0,0,0,0,0,0,0,0,0,0,0,0,0,0,0,0,0,0,0,0,0,0,0,0,0,0,0,0,0,0,0,0,0,0,0,0,0,0,0,0,0,0,0,0,0]}],[{"header":{"parameterUnit":"kt","parameterCategory":2,"dx":1,"dy":1,"la1":30.253999710083008,"la2":30.299108505249023,"lo1":-89.0895004272461,"lo2":-89.04439544677734,"nx":28,"ny":28,"refTime":"2022-10-29T21:00:00:Z","depth":"4","parameterNumber":3,"parameterNumberName":"V-component_of_CURRENTS"},"data":[-0.1065,-0.1172,-0.1219,-0.1337,-0.1402,-0.1476,-0.1468,-0.139,-0.1283,-0.114,-0.0942,-0.0798,-0.0452,-0.0554,-0.0106,-0.0045,0.0014,0.0374,0.0377,0.0476,0.0476,0.0476,0.0385,0,0,0,0,0,-0.1041,-0.1114,-0.1215,-0.1315,-0.1405,-0.1436,-0.1434,-0.1393,-0.1273,-0.1141,-0.1034,-0.08,-0.045,-0.0277,-0.0099,-0.0017,0.0238,0.0191,0.0265,0.0476,0.0476,0.0387,0,0,0,0,0,0,-0.1013,-0.1077,-0.1158,-0.1248,-0.1343,-0.138,-0.1376,-0.1295,-0.1235,-0.1018,-0.0955,-0.0662,-0.0472,-0.0172,0.0022,0.0208,0.0237,0.0264,0.0275,0.0277,0.0176,0.0083,0.0132,0,0,0,0,0,-0.097,-0.1009,-0.1057,-0.1177,-0.1236,-0.1279,-0.1286,-0.1264,-0.1138,-0.1064,-0.0854,-0.0646,-0.0404,-0.0128,0.009,0.0272,0.0403,0.0458,0.0459,0.0419,0.0371,0.0379,0.0368,0.0476,0.0476,0.0476,0.0476,0,-0.0918,-0.0955,-0.1025,-0.1078,-0.1092,-0.1131,-0.1151,-0.1071,-0.1035,-0.0866,-0.0828,-0.0612,-0.0451,-0.012,0.0094,0.0358,0.0385,0.0458,0.0415,0.0369,0.0381,0.0369,0.0357,0.0476,0.0476,0.0476,0.0476,0,-0.0886,-0.0896,-0.0946,-0.0952,-0.0966,-0.1,-0.0982,-0.097,-0.0875,-0.0811,-0.0778,-0.0554,-0.0352,-0.0135,0.0104,0.0195,0.0358,0.0408,0.0342,0.0358,0.0364,0.0352,0.0476,0.0476,0.0476,0.0476,0.0476,0,-0.0819,-0.085,-0.0862,-0.0882,-0.0924,-0.0864,-0.0872,-0.0815,-0.0727,-0.0684,-0.0534,-0.0459,-0.0243,-0.0093,0.0038,0.0203,0.0238,0.0295,0.0319,0.027,0.026,0.0292,0.0282,0.0362,0.0361,0.036,0.0359,0,-0.0762,-0.0773,-0.0812,-0.0808,-0.0776,-0.0774,-0.0754,-0.0665,-0.0634,-0.0517,-0.0479,-0.0325,-0.0258,-0.0121,0.0034,0.0019,0.0229,0.0227,0.0284,0.0282,0.0283,0.0275,0.0358,0.0358,0.0358,0.0357,0.0357,0,-0.0687,-0.0704,-0.0743,-0.0722,-0.0719,-0.0717,-0.0663,-0.0631,-0.052,-0.0471,-0.0378,-0.0304,-0.0191,-0.0172,0.0009,-0.004,0.0044,0.0115,0.0122,0.0105,0.0105,0.0135,0.019,0.0188,0.0187,0.0185,0.0183,0,-0.0634,-0.0671,-0.0637,-0.0656,-0.0667,-0.0604,-0.0576,-0.0522,-0.0464,-0.0405,-0.0308,-0.0261,-0.0219,-0.0197,-0.0119,-0.0036,0.0034,-0.0035,0.0112,0.0116,0.0079,0.0125,0.0033,0.016,0.0163,0.0165,0.0166,0,-0.0589,-0.0577,-0.0585,-0.0589,-0.0551,-0.0545,-0.051,-0.0462,-0.0439,-0.0378,-0.0332,-0.0257,-0.0218,-0.0186,-0.0138,-0.0074,0.0,-0.006,-0.0056,-0.0017,0.0136,0.0101,0.0112,0.0022,0.0024,0.0026,0.015,0,-0.0524,-0.0536,-0.0544,-0.0534,-0.0517,-0.052,-0.0469,-0.0446,-0.0419,-0.0378,-0.0317,-0.0259,-0.0204,-0.0182,-0.0161,-0.0093,-0.0087,-0.0076,-0.0066,-0.0043,0.0007,0.002,-0.0127,-0.0127,-0.0127,-0.0127,0,0,-0.0483,-0.0498,-0.0471,-0.0476,-0.0468,-0.0427,-0.0434,-0.0404,-0.0365,-0.034,-0.0338,-0.025,-0.0219,-0.0153,-0.0147,-0.0133,-0.01,-0.0136,-0.0062,-0.0055,-0.0049,0.0,0.0012,-0.0126,-0.0126,-0.0126,-0.0126,0,-0.0458,-0.0452,-0.047,-0.0453,-0.0435,-0.0411,-0.0412,-0.038,-0.0362,-0.0337,-0.0304,-0.0263,-0.0226,-0.0179,-0.0154,-0.0135,-0.0104,-0.0133,-0.0128,-0.0062,-0.0056,-0.005,-0.0001,0.001,-0.0125,-0.0125,-0.0126,0,-0.042,-0.041,-0.0418,-0.0402,-0.0389,-0.0381,-0.0357,-0.0354,-0.0342,-0.0307,-0.0287,-0.0257,-0.0215,-0.0183,-0.0169,-0.0164,-0.0097,-0.0134,-0.0134,-0.0133,-0.0064,-0.0057,-0.0051,-0.013,-0.013,-0.013,0,0,-0.0401,-0.041,-0.0381,-0.0394,-0.0386,-0.036,-0.0354,-0.0342,-0.0318,-0.0311,-0.0283,-0.0252,-0.0221,-0.0203,-0.0178,-0.0148,-0.0114,-0.0136,-0.0136,-0.0136,-0.0134,-0.0066,-0.0059,-0.0131,-0.0131,-0.0131,0,0,-0.0389,-0.037,-0.0364,-0.0377,-0.0356,-0.0326,-0.0331,-0.0317,-0.0298,-0.0302,-0.0267,-0.0259,-0.0234,-0.0213,-0.0225,-0.0173,-0.0171,-0.0169,-0.0189,-0.0188,-0.0188,-0.0194,-0.0209,0,0,0,0,0,-0.0354,-0.0371,-0.0366,-0.0365,-0.0348,-0.0328,-0.0324,-0.031,-0.0309,-0.031,-0.0283,-0.0274,-0.0208,-0.0218,-0.0211,-0.0201,-0.0139,-0.0138,-0.0137,-0.0156,-0.0156,-0.0156,0,0,0,0,0,0,-0.0354,-0.0353,-0.0365,-0.0337,-0.0333,-0.0328,-0.0316,-0.0312,-0.0308,-0.0308,-0.0278,-0.0272,-0.025,-0.022,-0.0214,-0.0205,-0.0211,-0.0139,-0.0138,-0.0136,-0.0156,-0.0156,-0.0156,0,0,0,0,0,-0.0353,-0.0352,-0.0335,-0.0336,-0.0333,-0.0313,-0.0316,-0.0313,-0.0312,-0.0276,-0.0271,-0.0304,-0.025,-0.0243,-0.0217,-0.0209,-0.0216,-0.0213,-0.0138,-0.0137,-0.0136,-0.0156,0,0,0,0,0,0,-0.0352,-0.0345,-0.0333,-0.0331,-0.0339,-0.0313,-0.031,-0.0314,-0.0281,-0.0276,-0.0299,-0.0299,-0.025,-0.0245,-0.024,-0.0211,-0.0219,-0.0217,-0.0215,-0.0137,-0.0136,-0.0136,0,0,0,0,0,0,-0.0345,-0.0344,-0.0332,-0.0336,-0.0334,-0.0313,-0.0311,-0.0287,-0.0281,-0.0306,-0.0305,-0.0299,-0.0254,-0.0246,-0.0242,-0.0205,-0.0222,-0.022,-0.0218,-0.0217,-0.0137,-0.0136,0,0,0,0,0,0,-0.0344,-0.0342,-0.0337,-0.0335,-0.0333,-0.0304,-0.029,-0.0273,-0.0291,-0.0307,-0.0291,-0.0292,-0.0255,-0.0251,-0.0243,-0.0208,-0.0206,-0.0222,-0.022,-0.0219,-0.0218,0,0,0,0,0,0,0,-0.0343,-0.0363,-0.0348,-0.0334,-0.0333,-0.0307,-0.0306,-0.0306,-0.0291,-0.0291,-0.0291,-0.0292,-0.0234,-0.0232,-0.0229,-0.0211,0,0,-0.0222,-0.0221,0,0,0,0,0,0,0,0,-0.0362,-0.0363,-0.0348,-0.0347,-0.0347,-0.0307,-0.0306,-0.0306,-0.0291,-0.0291,-0.0291,-0.0291,-0.0234,-0.0232,-0.023,0,0,0,0,0,0,0,0,0,0,0,0,0,0,0,-0.0348,-0.0347,0,-0.0307,-0.0307,-0.0306,-0.0291,-0.0291,-0.0291,-0.0291,-0.0233,-0.0231,-0.023,0,0,0,0,0,0,0,0,0,0,0,0,0,0,0,0,0,0,0,0,0,0,0,0,0,0,0,0,0,0,0,0,0,0,0,0,0,0,0,0,0,0,0,0,0,0,0,0,0,0,0,0,0,0,0,0,0,0,0,0,0,0,0,0,0,0,0,0,0]}]]]